Time,TemperatureF,DewpointF,PressureIn,WindDirection,WindDirectionDegrees,WindSpeedMPH,WindSpeedGustMPH,Humidity,HourlyPrecipIn,Conditions,Clouds,dailyrainin,SoftwareType,DateUTC
2013-01-13 00:03:00,70.6,65.2,29.67,SE,136,6.0,13.0,83,0.00,,SKC,0.00,VWS V14.01,2013-01-13 06:03:00,
2013-01-13 00:08:00,70.5,65.1,29.66,SSE,150,15.0,20.0,83,0.00,,SKC,0.00,VWS V14.01,2013-01-13 06:08:00,
2013-01-13 00:13:00,70.5,65.1,29.67,South,185,4.0,20.0,83,0.00,,SKC,0.00,VWS V14.01,2013-01-13 06:13:00,
2013-01-13 00:18:00,70.6,65.2,29.66,SSE,163,10.0,20.0,83,0.00,,SKC,0.00,VWS V14.01,2013-01-13 06:18:00,
2013-01-13 00:23:00,70.5,65.1,29.66,SSE,156,12.0,20.0,83,0.00,,SKC,0.00,VWS V14.01,2013-01-13 06:23:00,
2013-01-13 00:28:00,70.6,65.2,29.66,SSE,156,14.0,20.0,83,0.00,,SKC,0.00,VWS V14.01,2013-01-13 06:28:00,
2013-01-13 00:33:00,70.5,65.1,29.66,SSE,150,15.0,15.0,83,0.00,,SKC,0.00,VWS V14.01,2013-01-13 06:33:00,
2013-01-13 00:38:00,70.7,65.3,29.66,South,184,12.0,25.0,83,0.00,,SKC,0.00,VWS V14.01,2013-01-13 06:38:00,
2013-01-13 00:43:00,70.7,64.9,29.66,SSE,161,9.0,25.0,82,0.00,,SKC,0.00,VWS V14.01,2013-01-13 06:43:00,
2013-01-13 00:49:00,70.6,65.2,29.67,SSE,155,10.0,25.0,83,0.00,,SKC,0.00,VWS V14.01,2013-01-13 06:49:00,
2013-01-13 00:54:00,70.3,65.2,29.67,SSE,159,13.0,25.0,84,0.00,,SKC,0.00,VWS V14.01,2013-01-13 06:54:00,
2013-01-13 00:59:00,69.4,65.0,29.67,SSE,165,5.0,25.0,86,0.03,,SKC,0.03,VWS V14.01,2013-01-13 06:59:00,
2013-01-13 01:04:00,69.0,65.0,29.67,South,169,5.0,12.0,87,0.05,,SKC,0.05,VWS V14.01,2013-01-13 07:04:00,
2013-01-13 01:09:00,68.8,65.1,29.67,SSE,163,7.0,15.0,88,0.05,,SKC,0.05,VWS V14.01,2013-01-13 07:09:00,
2013-01-13 01:14:00,68.7,65.0,29.67,South,177,5.0,15.0,88,0.05,,SKC,0.05,VWS V14.01,2013-01-13 07:14:00,
2013-01-13 01:19:00,68.7,65.0,29.69,WSW,242,2.0,15.0,88,0.05,,SKC,0.05,VWS V14.01,2013-01-13 07:19:00,
2013-01-13 01:24:00,68.0,63.0,29.71,NNW,333,3.0,15.0,84,0.06,,SKC,0.06,VWS V14.01,2013-01-13 07:24:00,
2013-01-13 01:29:00,65.4,60.8,29.72,NNW,342,0.0,15.0,85,0.06,,SKC,0.06,VWS V14.01,2013-01-13 07:29:00,
2013-01-13 01:34:00,63.8,59.9,29.72,WSW,257,2.0,10.0,87,0.07,,SKC,0.07,VWS V14.01,2013-01-13 07:34:00,
2013-01-13 01:39:00,62.4,59.1,29.72,NW,318,0.0,10.0,89,0.07,,SKC,0.07,VWS V14.01,2013-01-13 07:39:00,
2013-01-13 01:45:00,61.7,59.0,29.71,SSW,207,6.0,10.0,91,0.10,,SKC,0.10,VWS V14.01,2013-01-13 07:45:00,
2013-01-13 01:50:00,61.4,59.1,29.71,SW,216,12.0,17.0,92,0.13,,SKC,0.13,VWS V14.01,2013-01-13 07:50:00,
2013-01-13 01:55:00,61.2,59.2,29.72,SW,226,2.0,17.0,93,0.16,,SKC,0.16,VWS V14.01,2013-01-13 07:55:00,
2013-01-13 02:00:00,61.1,59.1,29.73,SW,228,0.0,17.0,93,0.19,,SKC,0.19,VWS V14.01,2013-01-13 08:00:00,
2013-01-13 02:05:00,61.0,59.0,29.73,SW,217,4.0,16.0,93,0.17,,SKC,0.22,VWS V14.01,2013-01-13 08:05:00,
2013-01-13 02:10:00,60.9,59.2,29.72,WSW,244,2.0,16.0,94,0.20,,SKC,0.25,VWS V14.01,2013-01-13 08:10:00,
2013-01-13 02:15:00,60.6,58.9,29.73,SW,233,0.0,16.0,94,0.23,,SKC,0.28,VWS V14.01,2013-01-13 08:15:00,
2013-01-13 02:20:00,60.4,58.7,29.73,SW,236,0.0,16.0,94,0.26,,SKC,0.31,VWS V14.01,2013-01-13 08:20:00,
2013-01-13 02:25:00,60.2,58.5,29.74,SW,229,0.0,16.0,94,0.29,,SKC,0.34,VWS V14.01,2013-01-13 08:25:00,
2013-01-13 02:30:00,60.0,58.3,29.75,WSW,237,1.0,16.0,94,0.32,,SKC,0.37,VWS V14.01,2013-01-13 08:30:00,
2013-01-13 02:35:00,59.6,57.9,29.75,WSW,252,2.0,2.0,94,0.34,,SKC,0.40,VWS V14.01,2013-01-13 08:35:00,
2013-01-13 02:41:00,59.2,57.5,29.75,WSW,252,0.0,3.0,94,0.37,,SKC,0.43,VWS V14.01,2013-01-13 08:41:00,
2013-01-13 02:46:00,59.0,57.3,29.75,WSW,254,0.0,4.0,94,0.41,,SKC,0.47,VWS V14.01,2013-01-13 08:46:00,
2013-01-13 02:51:00,58.4,56.7,29.74,NW,314,3.0,12.0,94,0.43,,SKC,0.49,VWS V14.01,2013-01-13 08:51:00,
2013-01-13 02:56:00,57.2,55.2,29.76,NW,317,3.0,12.0,93,0.46,,SKC,0.52,VWS V14.01,2013-01-13 08:56:00,
2013-01-13 03:01:00,56.4,54.4,29.76,NW,307,0.0,12.0,93,0.49,,SKC,0.55,VWS V14.01,2013-01-13 09:01:00,
2013-01-13 03:06:00,55.5,53.5,29.76,NNW,338,7.0,11.0,93,0.38,,SKC,0.58,VWS V14.01,2013-01-13 09:06:00,
2013-01-13 03:11:00,54.7,52.7,29.77,NNW,328,0.0,11.0,93,0.41,,SKC,0.61,VWS V14.01,2013-01-13 09:11:00,
2013-01-13 03:16:00,54.2,52.2,29.78,NNW,329,0.0,11.0,93,0.44,,SKC,0.64,VWS V14.01,2013-01-13 09:16:00,
2013-01-13 03:21:00,54.0,52.3,29.77,NNW,338,0.0,11.0,94,0.46,,SKC,0.66,VWS V14.01,2013-01-13 09:21:00,
2013-01-13 03:26:00,53.3,51.3,29.76,NNW,345,2.0,11.0,93,0.49,,SKC,0.69,VWS V14.01,2013-01-13 09:26:00,
2013-01-13 03:32:00,52.6,50.6,29.76,NNW,342,1.0,11.0,93,0.52,,SKC,0.72,VWS V14.01,2013-01-13 09:32:00,
2013-01-13 03:37:00,51.9,49.9,29.76,NNW,346,0.0,4.0,93,0.36,,SKC,0.74,VWS V14.01,2013-01-13 09:37:00,
2013-01-13 03:42:00,51.5,49.8,29.76,NNW,343,4.0,5.0,94,0.39,,SKC,0.77,VWS V14.01,2013-01-13 09:42:00,
2013-01-13 03:47:00,51.2,49.5,29.76,NNW,344,3.0,10.0,94,0.41,,SKC,0.79,VWS V14.01,2013-01-13 09:47:00,
2013-01-13 03:52:00,50.9,49.2,29.76,North,355,7.0,10.0,94,0.43,,SKC,0.81,VWS V14.01,2013-01-13 09:52:00,
2013-01-13 03:57:00,50.4,48.7,29.79,NW,307,1.0,13.0,94,0.46,,SKC,0.84,VWS V14.01,2013-01-13 09:57:00,
2013-01-13 04:02:00,49.7,48.0,29.80,NNW,339,1.0,13.0,94,0.48,,SKC,0.86,VWS V14.01,2013-01-13 10:02:00,
2013-01-13 04:07:00,48.9,47.0,29.79,North,360,6.0,14.0,93,0.32,,SKC,0.88,VWS V14.01,2013-01-13 10:07:00,
2013-01-13 04:12:00,48.2,46.3,29.81,North,350,0.0,14.0,93,0.34,,SKC,0.90,VWS V14.01,2013-01-13 10:12:00,
2013-01-13 04:17:00,47.6,45.7,29.79,NNW,338,13.0,14.0,93,0.36,,SKC,0.92,VWS V14.01,2013-01-13 10:17:00,
2013-01-13 04:22:00,47.1,45.2,29.80,NNW,333,1.0,14.0,93,0.38,,SKC,0.94,VWS V14.01,2013-01-13 10:22:00,
2013-01-13 04:27:00,46.5,44.6,29.81,North,10,9.0,16.0,93,0.40,,SKC,0.96,VWS V14.01,2013-01-13 10:27:00,
2013-01-13 04:32:00,46.1,44.2,29.81,NNW,340,5.0,5.0,93,0.26,,SKC,0.98,VWS V14.01,2013-01-13 10:32:00,
2013-01-13 04:38:00,46.0,44.4,29.81,NNW,336,5.0,7.0,94,0.28,,SKC,1.00,VWS V14.01,2013-01-13 10:38:00,
2013-01-13 04:43:00,45.8,44.2,29.82,NNW,331,3.0,7.0,94,0.30,,SKC,1.02,VWS V14.01,2013-01-13 10:43:00,
2013-01-13 04:48:00,45.7,44.1,29.81,North,355,3.0,7.0,94,0.31,,SKC,1.03,VWS V14.01,2013-01-13 10:48:00,
2013-01-13 04:53:00,45.7,44.1,29.80,North,360,2.0,7.0,94,0.33,,SKC,1.05,VWS V14.01,2013-01-13 10:53:00,
2013-01-13 04:58:00,45.5,43.9,29.81,North,355,3.0,7.0,94,0.35,,SKC,1.07,VWS V14.01,2013-01-13 10:58:00,
2013-01-13 05:03:00,45.4,43.8,29.81,North,360,3.0,4.0,94,0.23,,SKC,1.09,VWS V14.01,2013-01-13 11:03:00,
2013-01-13 05:08:00,45.3,43.7,29.81,North,350,9.0,9.0,94,0.25,,SKC,1.11,VWS V14.01,2013-01-13 11:08:00,
2013-01-13 05:13:00,45.0,43.4,29.80,North,355,5.0,9.0,94,0.26,,SKC,1.12,VWS V14.01,2013-01-13 11:13:00,
2013-01-13 05:18:00,44.6,43.0,29.80,NNW,336,3.0,10.0,94,0.28,,SKC,1.14,VWS V14.01,2013-01-13 11:18:00,
2013-01-13 05:23:00,43.8,42.2,29.78,North,351,7.0,13.0,94,0.30,,SKC,1.16,VWS V14.01,2013-01-13 11:23:00,
2013-01-13 05:28:00,43.6,42.0,29.77,North,360,10.0,13.0,94,0.31,,SKC,1.17,VWS V14.01,2013-01-13 11:28:00,
2013-01-13 05:34:00,43.4,41.8,29.76,North,355,7.0,15.0,94,0.21,,SKC,1.19,VWS V14.01,2013-01-13 11:34:00,
2013-01-13 05:39:00,43.2,41.6,29.80,North,355,1.0,15.0,94,0.23,,SKC,1.21,VWS V14.01,2013-01-13 11:39:00,
2013-01-13 05:44:00,43.4,42.1,29.82,NNW,342,4.0,15.0,95,0.24,,SKC,1.22,VWS V14.01,2013-01-13 11:44:00,
2013-01-13 05:49:00,42.7,41.1,29.83,NW,309,2.0,15.0,94,0.26,,SKC,1.24,VWS V14.01,2013-01-13 11:49:00,
2013-01-13 05:54:00,42.1,40.5,29.82,NNW,345,0.0,15.0,94,0.27,,SKC,1.25,VWS V14.01,2013-01-13 11:54:00,
2013-01-13 05:59:00,41.5,39.9,29.83,NNW,348,6.0,15.0,94,0.29,,SKC,1.27,VWS V14.01,2013-01-13 11:59:00,
2013-01-13 06:04:00,41.1,39.5,29.84,North,5,10.0,12.0,94,0.19,,SKC,1.28,VWS V14.01,2013-01-13 12:04:00,
2013-01-13 06:09:00,40.9,39.3,29.83,North,355,4.0,12.0,94,0.20,,SKC,1.29,VWS V14.01,2013-01-13 12:09:00,
2013-01-13 06:14:00,40.8,39.2,29.84,North,5,9.0,12.0,94,0.22,,SKC,1.31,VWS V14.01,2013-01-13 12:14:00,
2013-01-13 06:20:00,40.7,39.1,29.81,NNE,14,14.0,14.0,94,0.23,,SKC,1.32,VWS V14.01,2013-01-13 12:20:00,
2013-01-13 06:25:00,40.8,39.2,29.80,NNE,17,9.0,15.0,94,0.24,,SKC,1.33,VWS V14.01,2013-01-13 12:25:00,
2013-01-13 06:30:00,40.9,39.3,29.81,North,355,7.0,15.0,94,0.25,,SKC,1.34,VWS V14.01,2013-01-13 12:30:00,
2013-01-13 06:35:00,40.9,39.3,29.82,NNW,338,3.0,5.0,94,0.16,,SKC,1.35,VWS V14.01,2013-01-13 12:35:00,
2013-01-13 06:40:00,40.9,39.3,29.82,NW,322,2.0,9.0,94,0.17,,SKC,1.36,VWS V14.01,2013-01-13 12:40:00,
2013-01-13 06:45:00,40.7,39.1,29.83,NNW,327,5.0,9.0,94,0.18,,SKC,1.37,VWS V14.01,2013-01-13 12:45:00,
2013-01-13 06:50:00,40.7,39.1,29.83,NW,319,3.0,9.0,94,0.20,,SKC,1.39,VWS V14.01,2013-01-13 12:50:00,
2013-01-13 06:55:00,40.8,39.2,29.82,North,9,3.0,9.0,94,0.21,,SKC,1.40,VWS V14.01,2013-01-13 12:55:00,
2013-01-13 07:00:00,40.8,39.2,29.83,NNW,328,4.0,9.0,94,0.23,,SKC,1.42,VWS V14.01,2013-01-13 13:00:00,
2013-01-13 07:05:00,40.6,39.0,29.83,NW,319,1.0,6.0,94,0.16,,SKC,1.43,VWS V14.01,2013-01-13 13:05:00,
2013-01-13 07:10:00,40.6,39.0,29.84,NNW,327,2.0,7.0,94,0.17,,SKC,1.44,VWS V14.01,2013-01-13 13:10:00,
2013-01-13 07:15:00,40.6,39.0,29.84,NNW,341,0.0,10.0,94,0.19,,SKC,1.46,VWS V14.01,2013-01-13 13:15:00,
2013-01-13 07:20:00,40.6,39.0,29.84,North,11,5.0,10.0,94,0.20,,SKC,1.47,VWS V14.01,2013-01-13 13:20:00,
2013-01-13 07:25:00,40.5,38.9,29.85,NNW,345,0.0,11.0,94,0.21,,SKC,1.48,VWS V14.01,2013-01-13 13:25:00,
2013-01-13 07:30:00,40.5,38.9,29.81,NNE,18,8.0,12.0,94,0.23,,SKC,1.50,VWS V14.01,2013-01-13 13:30:00,
2013-01-13 07:36:00,40.4,38.8,29.82,NNW,338,3.0,13.0,94,0.17,,SKC,1.51,VWS V14.01,2013-01-13 13:36:00,
2013-01-13 07:41:00,40.4,38.8,29.83,NW,313,0.0,13.0,94,0.18,,SKC,1.52,VWS V14.01,2013-01-13 13:41:00,
2013-01-13 07:46:00,40.3,39.0,29.85,NNW,342,2.0,13.0,95,0.20,,SKC,1.54,VWS V14.01,2013-01-13 13:46:00,
2013-01-13 07:51:00,40.2,38.9,29.88,NNW,329,3.0,13.0,95,0.22,,SKC,1.56,VWS V14.01,2013-01-13 13:51:00,
2013-01-13 07:56:00,39.9,38.3,29.87,North,351,0.0,13.0,94,0.23,,SKC,1.57,VWS V14.01,2013-01-13 13:56:00,
2013-01-13 08:01:00,39.8,38.2,29.87,NNW,334,5.0,13.0,94,0.24,,SKC,1.58,VWS V14.01,2013-01-13 14:01:00,
2013-01-13 08:06:00,39.8,38.2,29.88,NNW,329,4.0,4.0,94,0.18,,SKC,1.60,VWS V14.01,2013-01-13 14:06:00,
2013-01-13 08:11:00,39.8,38.2,29.88,NW,316,6.0,7.0,94,0.19,,SKC,1.61,VWS V14.01,2013-01-13 14:11:00,
2013-01-13 08:16:00,39.7,38.1,29.87,NNW,333,3.0,10.0,94,0.20,,SKC,1.62,VWS V14.01,2013-01-13 14:16:00,
2013-01-13 08:21:00,39.6,38.3,29.89,NNW,334,0.0,10.0,95,0.22,,SKC,1.64,VWS V14.01,2013-01-13 14:21:00,
2013-01-13 08:26:00,39.6,38.3,29.89,WNW,296,0.0,10.0,95,0.23,,SKC,1.65,VWS V14.01,2013-01-13 14:26:00,
2013-01-13 08:31:00,39.5,38.2,29.89,WSW,250,6.0,10.0,95,0.25,,SKC,1.67,VWS V14.01,2013-01-13 14:31:00,
2013-01-13 08:36:00,39.3,37.7,29.91,West,273,3.0,4.0,94,0.18,,SKC,1.68,VWS V14.01,2013-01-13 14:36:00,
2013-01-13 08:41:00,39.4,37.8,29.92,West,273,0.0,4.0,94,0.19,,SKC,1.69,VWS V14.01,2013-01-13 14:41:00,
2013-01-13 08:46:00,39.5,37.9,29.93,North,355,5.0,5.0,94,0.21,,SKC,1.71,VWS V14.01,2013-01-13 14:46:00,
2013-01-13 08:51:00,39.4,38.1,29.92,North,360,4.0,7.0,95,0.22,,SKC,1.72,VWS V14.01,2013-01-13 14:51:00,
2013-01-13 08:56:00,39.3,37.7,29.92,NNW,338,0.0,7.0,94,0.23,,SKC,1.73,VWS V14.01,2013-01-13 14:56:00,
2013-01-13 09:01:00,39.3,37.7,29.90,NNW,333,1.0,11.0,94,0.25,,SKC,1.75,VWS V14.01,2013-01-13 15:01:00,
2013-01-13 09:06:00,39.3,37.7,29.89,NW,321,5.0,12.0,94,0.17,,SKC,1.76,VWS V14.01,2013-01-13 15:06:00,
2013-01-13 09:11:00,39.3,37.7,29.89,North,355,6.0,12.0,94,0.19,,SKC,1.78,VWS V14.01,2013-01-13 15:11:00,
2013-01-13 09:16:00,39.3,37.7,29.90,North,355,0.0,15.0,94,0.20,,SKC,1.79,VWS V14.01,2013-01-13 15:16:00,
2013-01-13 09:21:00,39.3,37.7,29.89,NW,326,3.0,15.0,94,0.21,,SKC,1.80,VWS V14.01,2013-01-13 15:21:00,
2013-01-13 09:26:00,39.3,37.7,29.88,NE,42,14.0,15.0,94,0.23,,SKC,1.82,VWS V14.01,2013-01-13 15:26:00,
2013-01-13 09:32:00,39.3,37.7,29.88,NNE,13,10.0,17.0,94,0.24,,SKC,1.83,VWS V14.01,2013-01-13 15:32:00,
2013-01-13 09:37:00,39.3,37.7,29.88,North,351,6.0,15.0,94,0.17,,SKC,1.84,VWS V14.01,2013-01-13 15:37:00,
2013-01-13 09:42:00,39.3,37.7,29.87,North,355,8.0,16.0,94,0.19,,SKC,1.86,VWS V14.01,2013-01-13 15:42:00,
2013-01-13 09:47:00,39.4,37.8,29.86,North,350,5.0,16.0,94,0.20,,SKC,1.87,VWS V14.01,2013-01-13 15:47:00,
2013-01-13 09:52:00,39.3,37.7,29.88,NNW,331,1.0,16.0,94,0.21,,SKC,1.88,VWS V14.01,2013-01-13 15:52:00,
2013-01-13 09:57:00,39.5,37.9,29.90,NNE,19,3.0,16.0,94,0.22,,SKC,1.89,VWS V14.01,2013-01-13 15:57:00,
2013-01-13 10:02:00,39.5,37.9,29.89,NNW,344,3.0,16.0,94,0.23,,SKC,1.90,VWS V14.01,2013-01-13 16:02:00,
2013-01-13 10:07:00,39.5,37.9,29.88,NNW,348,3.0,11.0,94,0.17,,SKC,1.92,VWS V14.01,2013-01-13 16:07:00,
2013-01-13 10:12:00,39.5,37.9,29.89,NNW,340,3.0,11.0,94,0.18,,SKC,1.93,VWS V14.01,2013-01-13 16:12:00,
2013-01-13 10:17:00,39.4,37.8,29.91,NNW,336,4.0,11.0,94,0.19,,SKC,1.94,VWS V14.01,2013-01-13 16:17:00,
2013-01-13 10:22:00,39.4,37.8,29.91,NE,34,7.0,12.0,94,0.21,,SKC,1.96,VWS V14.01,2013-01-13 16:22:00,
2013-01-13 10:27:00,39.4,37.8,29.91,North,360,3.0,12.0,94,0.22,,SKC,1.97,VWS V14.01,2013-01-13 16:27:00,
2013-01-13 10:32:00,39.3,37.7,29.91,NNW,346,2.0,12.0,94,0.23,,SKC,1.98,VWS V14.01,2013-01-13 16:32:00,
2013-01-13 10:37:00,39.3,37.7,29.90,North,355,4.0,13.0,94,0.16,,SKC,1.99,VWS V14.01,2013-01-13 16:37:00,
2013-01-13 10:43:00,39.3,37.7,29.91,NNW,327,3.0,13.0,94,0.17,,SKC,2.00,VWS V14.01,2013-01-13 16:43:00,
2013-01-13 10:48:00,39.3,37.7,29.92,NNW,328,0.0,13.0,94,0.19,,SKC,2.02,VWS V14.01,2013-01-13 16:48:00,
2013-01-13 10:53:00,39.3,37.7,29.92,NW,318,1.0,13.0,94,0.20,,SKC,2.03,VWS V14.01,2013-01-13 16:53:00,
2013-01-13 10:58:00,39.0,37.4,29.90,North,351,3.0,13.0,94,0.21,,SKC,2.04,VWS V14.01,2013-01-13 16:58:00,
2013-01-13 11:03:00,39.1,37.5,29.92,North,350,6.0,6.0,94,0.14,,SKC,2.05,VWS V14.01,2013-01-13 17:03:00,
2013-01-13 11:08:00,38.8,37.2,29.92,NW,318,11.0,14.0,94,0.15,,SKC,2.06,VWS V14.01,2013-01-13 17:08:00,
2013-01-13 11:13:00,38.6,37.0,29.92,NNW,333,1.0,14.0,94,0.17,,SKC,2.08,VWS V14.01,2013-01-13 17:13:00,
2013-01-13 11:18:00,38.6,37.0,29.91,NNW,342,2.0,14.0,94,0.18,,SKC,2.09,VWS V14.01,2013-01-13 17:18:00,
2013-01-13 11:23:00,38.5,36.9,29.92,North,355,3.0,14.0,94,0.19,,SKC,2.10,VWS V14.01,2013-01-13 17:23:00,
2013-01-13 11:28:00,38.4,36.8,29.93,NNW,337,2.0,14.0,94,0.20,,SKC,2.11,VWS V14.01,2013-01-13 17:28:00,
2013-01-13 11:33:00,38.3,36.7,29.94,North,351,4.0,6.0,94,0.14,,SKC,2.12,VWS V14.01,2013-01-13 17:33:00,
2013-01-13 11:39:00,38.2,36.6,29.95,WNW,296,6.0,14.0,94,0.16,,SKC,2.14,VWS V14.01,2013-01-13 17:39:00,
2013-01-13 11:44:00,38.2,36.6,29.94,NNW,345,0.0,14.0,94,0.17,,SKC,2.15,VWS V14.01,2013-01-13 17:44:00,
2013-01-13 11:49:00,38.1,36.5,29.94,NW,321,6.0,14.0,94,0.18,,SKC,2.16,VWS V14.01,2013-01-13 17:49:00,
2013-01-13 11:54:00,38.2,36.6,29.92,NNW,328,3.0,14.0,94,0.19,,SKC,2.17,VWS V14.01,2013-01-13 17:54:00,
2013-01-13 11:59:00,38.2,36.6,29.92,NNW,342,5.0,14.0,94,0.20,,SKC,2.18,VWS V14.01,2013-01-13 17:59:00,
2013-01-13 12:04:00,38.1,36.5,29.93,NNW,348,2.0,5.0,94,0.15,,SKC,2.20,VWS V14.01,2013-01-13 18:04:00,
2013-01-13 12:09:00,38.0,36.4,29.92,NW,317,10.0,18.0,94,0.16,,SKC,2.21,VWS V14.01,2013-01-13 18:09:00,
2013-01-13 12:14:00,37.9,36.3,29.92,North,10,6.0,18.0,94,0.17,,SKC,2.22,VWS V14.01,2013-01-13 18:14:00,
2013-01-13 12:19:00,37.8,36.2,29.92,NW,318,4.0,18.0,94,0.18,,SKC,2.23,VWS V14.01,2013-01-13 18:19:00,
2013-01-13 12:24:00,37.9,36.3,29.92,NW,324,4.0,18.0,94,0.19,,SKC,2.24,VWS V14.01,2013-01-13 18:24:00,
2013-01-13 12:29:00,37.9,36.3,29.92,NNW,342,7.0,18.0,94,0.20,,SKC,2.25,VWS V14.01,2013-01-13 18:29:00,
2013-01-13 12:34:00,38.0,36.4,29.92,NNW,344,3.0,13.0,94,0.14,,SKC,2.26,VWS V14.01,2013-01-13 18:34:00,
2013-01-13 12:39:00,38.0,36.4,29.94,NW,325,4.0,13.0,94,0.16,,SKC,2.28,VWS V14.01,2013-01-13 18:39:00,
2013-01-13 12:44:00,38.1,36.5,29.95,NW,326,5.0,13.0,94,0.16,,SKC,2.28,VWS V14.01,2013-01-13 18:44:00,
2013-01-13 12:49:00,38.0,36.2,29.93,North,360,5.0,13.0,93,0.18,,SKC,2.30,VWS V14.01,2013-01-13 18:49:00,
2013-01-13 12:54:00,38.0,36.2,29.92,North,350,3.0,13.0,93,0.19,,SKC,2.31,VWS V14.01,2013-01-13 18:54:00,
2013-01-13 12:59:00,37.9,36.1,29.92,North,350,8.0,19.0,93,0.20,,SKC,2.32,VWS V14.01,2013-01-13 18:59:00,
2013-01-13 13:04:00,37.8,36.0,29.93,NNW,342,0.0,4.0,93,0.14,,SKC,2.33,VWS V14.01,2013-01-13 19:04:00,
2013-01-13 13:09:00,38.0,36.4,29.94,North,355,2.0,5.0,94,0.15,,SKC,2.34,VWS V14.01,2013-01-13 19:09:00,
2013-01-13 13:14:00,38.0,36.4,29.94,North,351,4.0,10.0,94,0.16,,SKC,2.35,VWS V14.01,2013-01-13 19:14:00,
2013-01-13 13:20:00,37.9,36.1,29.93,NW,321,7.0,12.0,93,0.17,,SKC,2.36,VWS V14.01,2013-01-13 19:20:00,
2013-01-13 13:25:00,37.9,36.1,29.94,NNW,340,1.0,12.0,93,0.18,,SKC,2.37,VWS V14.01,2013-01-13 19:25:00,
2013-01-13 13:30:00,37.9,36.1,29.94,NNW,342,3.0,12.0,93,0.19,,SKC,2.38,VWS V14.01,2013-01-13 19:30:00,
2013-01-13 13:35:00,37.9,36.1,29.94,NW,321,3.0,10.0,93,0.13,,SKC,2.39,VWS V14.01,2013-01-13 19:35:00,
2013-01-13 13:40:00,38.0,36.2,29.93,North,5,11.0,11.0,93,0.14,,SKC,2.40,VWS V14.01,2013-01-13 19:40:00,
2013-01-13 13:45:00,37.9,36.1,29.94,NNW,334,5.0,11.0,93,0.15,,SKC,2.41,VWS V14.01,2013-01-13 19:45:00,
2013-01-13 13:50:00,38.0,36.2,29.94,North,350,2.0,11.0,93,0.16,,SKC,2.42,VWS V14.01,2013-01-13 19:50:00,
2013-01-13 13:55:00,38.1,36.3,29.95,NW,313,3.0,11.0,93,0.17,,SKC,2.43,VWS V14.01,2013-01-13 19:55:00,
2013-01-13 14:00:00,38.1,36.3,29.95,North,355,0.0,11.0,93,0.18,,SKC,2.44,VWS V14.01,2013-01-13 20:00:00,
2013-01-13 14:05:00,38.2,36.4,29.96,NW,317,0.0,10.0,93,0.13,,SKC,2.45,VWS V14.01,2013-01-13 20:05:00,
2013-01-13 14:10:00,38.3,36.5,29.96,NNW,340,2.0,10.0,93,0.14,,SKC,2.46,VWS V14.01,2013-01-13 20:10:00,
2013-01-13 14:15:00,38.3,36.5,29.98,NNW,340,2.0,10.0,93,0.14,,SKC,2.46,VWS V14.01,2013-01-13 20:15:00,
2013-01-13 14:20:00,38.3,36.5,29.99,NNW,331,3.0,10.0,93,0.16,,SKC,2.48,VWS V14.01,2013-01-13 20:20:00,
2013-01-13 14:25:00,38.2,36.4,30.01,NW,313,3.0,12.0,93,0.16,,SKC,2.48,VWS V14.01,2013-01-13 20:25:00,
2013-01-13 14:30:00,38.2,36.4,30.00,North,355,3.0,12.0,93,0.17,,SKC,2.49,VWS V14.01,2013-01-13 20:30:00,
2013-01-13 14:35:00,38.3,36.5,30.01,NNW,342,0.0,7.0,93,0.12,,SKC,2.50,VWS V14.01,2013-01-13 20:35:00,
2013-01-13 14:40:00,38.2,36.4,30.01,North,355,4.0,13.0,93,0.13,,SKC,2.51,VWS V14.01,2013-01-13 20:40:00,
2013-01-13 14:46:00,38.2,36.4,30.01,North,351,5.0,13.0,93,0.14,,SKC,2.52,VWS V14.01,2013-01-13 20:46:00,
2013-01-13 14:51:00,38.1,36.3,30.01,North,351,9.0,13.0,93,0.15,,SKC,2.53,VWS V14.01,2013-01-13 20:51:00,
2013-01-13 14:56:00,37.9,36.1,30.02,North,350,4.0,13.0,93,0.16,,SKC,2.54,VWS V14.01,2013-01-13 20:56:00,
2013-01-13 15:01:00,37.7,35.9,30.02,NNW,331,4.0,14.0,93,0.16,,SKC,2.54,VWS V14.01,2013-01-13 21:01:00,
2013-01-13 15:06:00,37.6,35.8,30.04,NW,319,0.0,11.0,93,0.11,,SKC,2.55,VWS V14.01,2013-01-13 21:06:00,
2013-01-13 15:11:00,37.7,35.9,30.08,NNW,337,0.0,11.0,93,0.12,,SKC,2.56,VWS V14.01,2013-01-13 21:11:00,
2013-01-13 15:16:00,37.5,35.7,30.05,NW,317,3.0,13.0,93,0.13,,SKC,2.57,VWS V14.01,2013-01-13 21:16:00,
2013-01-13 15:21:00,37.1,35.0,30.07,NW,319,0.0,14.0,92,0.14,,SKC,2.58,VWS V14.01,2013-01-13 21:21:00,
2013-01-13 15:26:00,36.9,34.8,30.07,NNW,327,2.0,14.0,92,0.14,,SKC,2.58,VWS V14.01,2013-01-13 21:26:00,
2013-01-13 15:31:00,36.8,34.7,30.06,North,5,3.0,14.0,92,0.15,,SKC,2.59,VWS V14.01,2013-01-13 21:31:00,
2013-01-13 15:36:00,36.7,34.9,30.06,WNW,295,4.0,9.0,93,0.10,,SKC,2.60,VWS V14.01,2013-01-13 21:36:00,
2013-01-13 15:41:00,36.6,34.8,30.08,WNW,299,4.0,14.0,93,0.11,,SKC,2.61,VWS V14.01,2013-01-13 21:41:00,
2013-01-13 15:46:00,36.4,34.3,30.08,North,349,1.0,17.0,92,0.11,,SKC,2.61,VWS V14.01,2013-01-13 21:46:00,
2013-01-13 15:51:00,36.2,34.1,30.10,NNW,343,4.0,17.0,92,0.11,,SKC,2.61,VWS V14.01,2013-01-13 21:51:00,
2013-01-13 15:57:00,36.1,34.0,30.10,NNW,338,0.0,17.0,92,0.12,,SKC,2.62,VWS V14.01,2013-01-13 21:57:00,
2013-01-13 16:02:00,36.1,34.0,30.10,NNW,341,7.0,17.0,92,0.13,,SKC,2.63,VWS V14.01,2013-01-13 22:02:00,
2013-01-13 16:07:00,35.9,33.8,30.10,North,5,5.0,13.0,92,0.08,,SKC,2.63,VWS V14.01,2013-01-13 22:07:00,
2013-01-13 16:12:00,35.9,34.1,30.11,NNW,342,6.0,13.0,93,0.09,,SKC,2.64,VWS V14.01,2013-01-13 22:12:00,
2013-01-13 16:17:00,35.8,33.7,30.12,NW,309,11.0,15.0,92,0.10,,SKC,2.65,VWS V14.01,2013-01-13 22:17:00,
2013-01-13 16:22:00,35.7,33.6,30.11,North,9,5.0,15.0,92,0.10,,SKC,2.65,VWS V14.01,2013-01-13 22:22:00,
2013-01-13 16:27:00,35.7,33.6,30.11,NNW,344,3.0,15.0,92,0.11,,SKC,2.66,VWS V14.01,2013-01-13 22:27:00,
2013-01-13 16:32:00,35.6,33.5,30.11,NNW,340,3.0,15.0,92,0.12,,SKC,2.67,VWS V14.01,2013-01-13 22:32:00,
2013-01-13 16:37:00,35.5,33.4,30.11,NNE,21,2.0,12.0,92,0.07,,SKC,2.67,VWS V14.01,2013-01-13 22:37:00,
2013-01-13 16:42:00,35.4,33.3,30.11,NNW,327,5.0,12.0,92,0.08,,SKC,2.68,VWS V14.01,2013-01-13 22:42:00,
2013-01-13 16:47:00,35.4,33.3,30.11,WNW,286,1.0,12.0,92,0.09,,SKC,2.69,VWS V14.01,2013-01-13 22:47:00,
2013-01-13 16:52:00,35.4,33.6,30.11,NNW,341,3.0,12.0,93,0.09,,SKC,2.69,VWS V14.01,2013-01-13 22:52:00,
2013-01-13 16:57:00,35.4,33.3,30.12,NNW,341,5.0,13.0,92,0.10,,SKC,2.70,VWS V14.01,2013-01-13 22:57:00,
2013-01-13 17:02:00,35.4,33.3,30.12,North,9,6.0,6.0,92,0.08,,SKC,2.71,VWS V14.01,2013-01-13 23:02:00,
2013-01-13 17:07:00,35.5,33.7,30.12,North,350,4.0,8.0,93,0.08,,SKC,2.71,VWS V14.01,2013-01-13 23:07:00,
2013-01-13 17:12:00,35.5,33.7,30.12,NNW,335,2.0,9.0,93,0.09,,SKC,2.72,VWS V14.01,2013-01-13 23:12:00,
2013-01-13 17:18:00,35.4,33.6,30.12,NW,323,5.0,11.0,93,0.09,,SKC,2.72,VWS V14.01,2013-01-13 23:18:00,
2013-01-13 17:23:00,35.5,33.7,30.12,NNW,348,4.0,14.0,93,0.10,,SKC,2.73,VWS V14.01,2013-01-13 23:23:00,
2013-01-13 17:28:00,35.5,33.7,30.12,North,355,3.0,14.0,93,0.10,,SKC,2.73,VWS V14.01,2013-01-13 23:28:00,
2013-01-13 17:33:00,35.5,33.7,30.11,North,10,8.0,12.0,93,0.07,,SKC,2.74,VWS V14.01,2013-01-13 23:33:00,
2013-01-13 17:38:00,35.5,33.4,30.12,NNW,331,5.0,13.0,92,0.08,,SKC,2.75,VWS V14.01,2013-01-13 23:38:00,
2013-01-13 17:43:00,35.5,33.4,30.12,NNE,12,6.0,13.0,92,0.08,,SKC,2.75,VWS V14.01,2013-01-13 23:43:00,
2013-01-13 17:48:00,35.5,33.4,30.13,NNW,333,4.0,13.0,92,0.09,,SKC,2.76,VWS V14.01,2013-01-13 23:48:00,
2013-01-13 17:53:00,35.3,33.2,30.14,North,355,4.0,13.0,92,0.09,,SKC,2.76,VWS V14.01,2013-01-13 23:53:00,
2013-01-13 17:58:00,35.4,33.3,30.14,NNW,338,7.0,13.0,92,0.10,,SKC,2.77,VWS V14.01,2013-01-13 23:58:00,
2013-01-13 18:03:00,35.3,32.9,30.14,North,349,2.0,4.0,91,0.06,,SKC,2.77,VWS V14.01,2013-01-14 00:03:00,
2013-01-13 18:08:00,35.3,32.9,30.14,North,351,3.0,13.0,91,0.07,,SKC,2.78,VWS V14.01,2013-01-14 00:08:00,
2013-01-13 18:14:00,35.3,32.9,30.14,WNW,303,3.0,13.0,91,0.08,,SKC,2.79,VWS V14.01,2013-01-14 00:14:00,
2013-01-13 18:19:00,35.3,32.9,30.15,NNW,329,1.0,14.0,91,0.08,,SKC,2.79,VWS V14.01,2013-01-14 00:19:00,
2013-01-13 18:24:00,35.2,32.8,30.15,NNW,333,10.0,14.0,91,0.08,,SKC,2.79,VWS V14.01,2013-01-14 00:24:00,
2013-01-13 18:29:00,35.1,32.7,30.14,North,355,2.0,14.0,91,0.09,,SKC,2.80,VWS V14.01,2013-01-14 00:29:00,
2013-01-13 18:34:00,35.1,32.7,30.15,North,360,6.0,10.0,91,0.06,,SKC,2.80,VWS V14.01,2013-01-14 00:34:00,
2013-01-13 18:39:00,35.1,32.7,30.14,NW,312,1.0,12.0,91,0.07,,SKC,2.81,VWS V14.01,2013-01-14 00:39:00,
2013-01-13 18:44:00,35.1,32.7,30.14,North,355,3.0,12.0,91,0.07,,SKC,2.81,VWS V14.01,2013-01-14 00:44:00,
2013-01-13 18:49:00,35.1,32.7,30.14,NNW,331,3.0,13.0,91,0.08,,SKC,2.82,VWS V14.01,2013-01-14 00:49:00,
2013-01-13 18:54:00,35.1,32.7,30.14,NNW,342,10.0,13.0,91,0.08,,SKC,2.82,VWS V14.01,2013-01-14 00:54:00,
2013-01-13 18:59:00,35.1,32.7,30.14,NNW,345,1.0,13.0,91,0.09,,SKC,2.83,VWS V14.01,2013-01-14 00:59:00,
2013-01-13 19:04:00,35.1,32.7,30.14,NNW,348,8.0,9.0,91,0.06,,SKC,2.83,VWS V14.01,2013-01-14 01:04:00,
2013-01-13 19:09:00,35.1,32.7,30.15,NW,310,7.0,11.0,91,0.06,,SKC,2.83,VWS V14.01,2013-01-14 01:09:00,
2013-01-13 19:15:00,35.2,32.8,30.15,North,5,5.0,11.0,91,0.07,,SKC,2.84,VWS V14.01,2013-01-14 01:15:00,
2013-01-13 19:20:00,35.2,32.8,30.15,North,5,5.0,17.0,91,0.08,,SKC,2.85,VWS V14.01,2013-01-14 01:20:00,
2013-01-13 19:25:00,35.1,32.7,30.15,North,355,11.0,17.0,91,0.08,,SKC,2.85,VWS V14.01,2013-01-14 01:25:00,
2013-01-13 19:30:00,35.1,32.5,30.16,North,360,5.0,17.0,90,0.08,,SKC,2.85,VWS V14.01,2013-01-14 01:30:00,
2013-01-13 19:35:00,35.0,32.4,30.16,North,11,10.0,12.0,90,0.06,,SKC,2.86,VWS V14.01,2013-01-14 01:35:00,
2013-01-13 19:40:00,34.7,31.5,30.16,NNW,341,5.0,17.0,88,0.06,,SKC,2.86,VWS V14.01,2013-01-14 01:40:00,
2013-01-13 19:45:00,34.5,31.3,30.17,North,349,3.0,17.0,88,0.07,,SKC,2.87,VWS V14.01,2013-01-14 01:45:00,
2013-01-13 19:50:00,34.4,30.9,30.17,NW,323,3.0,17.0,87,0.07,,SKC,2.87,VWS V14.01,2013-01-14 01:50:00,
2013-01-13 19:55:00,34.4,30.9,30.17,North,360,8.0,17.0,87,0.07,,SKC,2.87,VWS V14.01,2013-01-14 01:55:00,
2013-01-13 20:00:00,34.4,31.2,30.17,North,360,5.0,17.0,88,0.08,,SKC,2.88,VWS V14.01,2013-01-14 02:00:00,
2013-01-13 20:06:00,34.4,31.2,30.17,NNW,333,2.0,9.0,88,0.05,,SKC,2.88,VWS V14.01,2013-01-14 02:06:00,
2013-01-13 20:11:00,34.4,31.2,30.18,NNW,346,1.0,10.0,88,0.06,,SKC,2.89,VWS V14.01,2013-01-14 02:11:00,
2013-01-13 20:16:00,34.4,30.9,30.18,NNW,336,3.0,10.0,87,0.06,,SKC,2.89,VWS V14.01,2013-01-14 02:16:00,
2013-01-13 20:21:00,34.4,31.2,30.18,North,355,1.0,10.0,88,0.06,,SKC,2.89,VWS V14.01,2013-01-14 02:21:00,
2013-01-13 20:26:00,34.4,31.2,30.18,North,9,8.0,12.0,88,0.07,,SKC,2.90,VWS V14.01,2013-01-14 02:26:00,
2013-01-13 20:31:00,34.2,30.5,30.18,North,360,5.0,14.0,86,0.07,,SKC,2.90,VWS V14.01,2013-01-14 02:31:00,
2013-01-13 20:36:00,33.9,30.2,30.19,NNW,331,7.0,11.0,86,0.05,,SKC,2.90,VWS V14.01,2013-01-14 02:36:00,
2013-01-13 20:41:00,33.9,30.2,30.19,North,360,5.0,11.0,86,0.06,,SKC,2.91,VWS V14.01,2013-01-14 02:41:00,
2013-01-13 20:46:00,33.8,30.1,30.18,North,9,7.0,11.0,86,0.06,,SKC,2.91,VWS V14.01,2013-01-14 02:46:00,
2013-01-13 20:51:00,33.7,30.0,30.18,North,355,11.0,12.0,86,0.06,,SKC,2.91,VWS V14.01,2013-01-14 02:51:00,
2013-01-13 20:57:00,33.4,29.4,30.18,NNW,334,11.0,15.0,85,0.06,,SKC,2.91,VWS V14.01,2013-01-14 02:57:00,
2013-01-13 21:02:00,33.2,29.2,30.18,NNE,17,10.0,15.0,85,0.07,,SKC,2.92,VWS V14.01,2013-01-14 03:02:00,
2013-01-13 21:07:00,33.1,29.1,30.19,North,9,5.0,13.0,85,0.04,,SKC,2.92,VWS V14.01,2013-01-14 03:07:00,
2013-01-13 21:12:00,32.9,28.9,30.19,North,350,4.0,13.0,85,0.05,,SKC,2.93,VWS V14.01,2013-01-14 03:12:00,
2013-01-13 21:17:00,32.8,28.8,30.19,North,355,5.0,13.0,85,0.05,,SKC,2.93,VWS V14.01,2013-01-14 03:17:00,
2013-01-13 21:22:00,32.6,28.9,30.19,North,355,3.0,13.0,86,0.05,,SKC,2.93,VWS V14.01,2013-01-14 03:22:00,
2013-01-13 21:27:00,32.5,28.5,30.19,NNW,338,5.0,13.0,85,0.05,,SKC,2.93,VWS V14.01,2013-01-14 03:27:00,
2013-01-13 21:32:00,32.5,28.8,30.19,North,5,3.0,13.0,86,0.06,,SKC,2.94,VWS V14.01,2013-01-14 03:32:00,
2013-01-13 21:37:00,32.4,28.7,30.19,North,360,6.0,12.0,86,0.04,,SKC,2.94,VWS V14.01,2013-01-14 03:37:00,
2013-01-13 21:42:00,32.3,30.2,30.19,North,355,7.0,12.0,92,0.04,,SKC,2.94,VWS V14.01,2013-01-14 03:42:00,
2013-01-13 21:48:00,32.3,28.6,30.20,North,5,4.0,12.0,86,0.04,,SKC,2.94,VWS V14.01,2013-01-14 03:48:00,
2013-01-13 21:53:00,32.3,28.9,30.20,North,5,3.0,12.0,87,0.05,,SKC,2.95,VWS V14.01,2013-01-14 03:53:00,
2013-01-13 21:58:00,32.3,28.9,30.20,North,351,5.0,12.0,87,0.05,,SKC,2.95,VWS V14.01,2013-01-14 03:58:00,
2013-01-13 22:03:00,32.3,28.9,30.21,North,11,5.0,9.0,87,0.03,,SKC,2.95,VWS V14.01,2013-01-14 04:03:00,
2013-01-13 22:08:00,32.2,28.8,30.21,NNW,348,4.0,12.0,87,0.03,,SKC,2.95,VWS V14.01,2013-01-14 04:08:00,
2013-01-13 22:13:00,32.2,28.8,30.21,NNW,331,4.0,12.0,87,0.03,,SKC,2.95,VWS V14.01,2013-01-14 04:13:00,
2013-01-13 22:18:00,32.1,28.7,30.21,North,351,4.0,12.0,87,0.04,,SKC,2.96,VWS V14.01,2013-01-14 04:18:00,
2013-01-13 22:23:00,32.1,28.7,30.21,NNW,336,3.0,12.0,87,0.04,,SKC,2.96,VWS V14.01,2013-01-14 04:23:00,
2013-01-13 22:28:00,32.0,28.6,30.22,North,9,4.0,12.0,87,0.04,,SKC,2.96,VWS V14.01,2013-01-14 04:28:00,
2013-01-13 22:34:00,32.0,28.6,30.22,NNW,344,5.0,10.0,87,0.03,,SKC,2.97,VWS V14.01,2013-01-14 04:34:00,
2013-01-13 22:39:00,32.0,28.6,30.22,NNW,328,3.0,12.0,87,0.03,,SKC,2.97,VWS V14.01,2013-01-14 04:39:00,
2013-01-13 22:44:00,31.9,28.2,30.22,NNE,14,10.0,13.0,86,0.03,,SKC,2.97,VWS V14.01,2013-01-14 04:44:00,
2013-01-13 22:49:00,31.8,28.1,30.22,North,355,5.0,13.0,86,0.03,,SKC,2.97,VWS V14.01,2013-01-14 04:49:00,
2013-01-13 22:54:00,31.8,28.1,30.22,North,9,5.0,13.0,86,0.03,,SKC,2.97,VWS V14.01,2013-01-14 04:54:00,
2013-01-13 22:59:00,31.7,28.0,30.22,NNW,327,4.0,13.0,86,0.04,,SKC,2.98,VWS V14.01,2013-01-14 04:59:00,
2013-01-13 23:00:00,31.7,28.0,30.22,North,355,5.0,13.0,86,0.04,,SKC,2.98,VWS V14.01,2013-01-14 05:00:00,
2013-01-13 23:01:00,31.6,27.9,30.22,North,360,6.0,13.0,86,0.04,,SKC,2.98,VWS V14.01,2013-01-14 05:01:00,
2013-01-13 23:02:00,31.6,27.9,30.22,North,5,4.0,13.0,86,0.04,,SKC,2.98,VWS V14.01,2013-01-14 05:02:00,
2013-01-13 23:08:00,31.6,27.9,30.23,North,360,11.0,12.0,86,0.03,,SKC,2.98,VWS V14.01,2013-01-14 05:08:00,
2013-01-13 23:13:00,31.5,28.1,30.23,North,5,6.0,12.0,87,0.03,,SKC,2.98,VWS V14.01,2013-01-14 05:13:00,
2013-01-13 23:18:00,31.4,27.7,30.23,North,355,5.0,12.0,86,0.04,,SKC,2.99,VWS V14.01,2013-01-14 05:18:00,
2013-01-13 23:23:00,31.3,27.6,30.23,North,350,10.0,12.0,86,0.04,,SKC,2.99,VWS V14.01,2013-01-14 05:23:00,
2013-01-13 23:28:00,31.2,27.5,30.23,North,351,5.0,15.0,86,0.04,,SKC,2.99,VWS V14.01,2013-01-14 05:28:00,
2013-01-13 23:33:00,31.0,27.3,30.24,North,355,7.0,7.0,86,0.02,,SKC,2.99,VWS V14.01,2013-01-14 05:33:00,
2013-01-13 23:38:00,30.9,27.2,30.24,North,360,1.0,11.0,86,0.02,,SKC,2.99,VWS V14.01,2013-01-14 05:38:00,
2013-01-13 23:43:00,30.9,27.2,30.25,NNE,12,3.0,11.0,86,0.02,,SKC,2.99,VWS V14.01,2013-01-14 05:43:00,
2013-01-13 23:48:00,30.9,27.2,30.24,North,360,13.0,18.0,86,0.02,,SKC,2.99,VWS V14.01,2013-01-14 05:48:00,
2013-01-13 23:53:00,30.8,26.8,30.24,NNE,15,7.0,18.0,85,0.02,,SKC,2.99,VWS V14.01,2013-01-14 05:53:00,
2013-01-13 23:58:00,30.7,26.5,30.24,NNW,346,7.0,18.0,84,0.03,,SKC,3.00,VWS V14.01,2013-01-14 05:58:00,